Regional Weather Roundup
Issued by NWS

Home | Current Version | Previous Version | Graphics & Text | Print | Product List | Glossary On
Versions: 1 2 3 4 5 6 7 8 9 10 11 12 13 14 15 16 17 18 19 20 21 22 23 24 25 26 27 28 29 30 31 32 33 34 35 36 37 38 39 40 41 42 43 44 45 46 47 48 49 50
877
ASUS45 KABQ 220210
RWRNM
NEW MEXICO REGIONAL WEATHER ROUNDUP
NATIONAL WEATHER SERVICE ALBUQUERQUE NM
700 PM MST TUE FEB 21 2017

NOTE: "FAIR" MEANS FEW OR NO CLOUDS BELOW 12,000 FEET AGL WITH NO
       SIGNIFICANT WEATHER OR OBSTRUCTIONS TO VISION.

      THIS PRODUCT IS RELEASED AS TWO VERSIONS.  ONE VERSION NEAR
      THE TOP OF THE HOUR CONTAINING PRELIMINARY DATA FROM ALBUQUERQUE
      AND OTHER STATIONS.  A FINAL VERSION WITH ADDITIONAL DATA IS
      ISSUED ABOUT 10 MINUTES AFTER THE HOUR.

NMZ501-503-504-510>518-220300-
NORTHWEST PLATEAU/NORTHCENTRAL MOUNTAINS

CITY           SKY/WX    TMP DP  RH WIND       PRES   REMARKS
FARMINGTON     FAIR      57  29  34 W9        30.19S
LOS ALAMOS     FAIR      52  20  27 W12       30.28R
SANTA FE       FAIR      52  17  25 W8        30.22R
TAOS             N/A     46  19  34 NW10      30.26R
ANGEL FIRE     FAIR      43  20  40 W13       30.29S

$$
NMZ402-403-502-505>509-220300-
WESTCENTRAL MOUNTAINS/SOUTHWEST MOUNTAINS

CITY           SKY/WX    TMP DP  RH WIND       PRES   REMARKS
GALLUP         FAIR      49  32  52 S7        30.27F
GRANTS         FAIR      49  30  47 W9        30.29S
SILVER CITY    FAIR      56  38  49 NW14      30.26R

$$
NMZ407-409-411-412-220300-
SOUTHERN DESERTS

CITY           SKY/WX    TMP DP  RH WIND       PRES   REMARKS
DEMING         FAIR      64  38  38 W12       30.21S
LAS CRUCES     FAIR      61  33  34 SW3       30.21S
HOLLOMAN AFB   FAIR      64  32  29 CALM      30.21S
ALAMOGORDO     FAIR      59  28  31 NE6       30.19S
T OR C         FAIR      62  35  36 SE6       30.18S

$$
NMZ519>523-220300-
CENTRAL VALLEYS/CENTRAL HIGHLANDS

CITY           SKY/WX    TMP DP  RH WIND       PRES   REMARKS
ALBUQUERQUE    FAIR      62  27  26 N9        30.19S
DOUBLE EAGLE   PTCLDY    48  27  43 NW8       30.22S
MORIARTY ARPT  FAIR      48  24  39 N7        30.24R
CLINES CORNERS FAIR      46  22  38 NW14      30.25R
BELEN          FAIR      55  30  37 CALM      30.20R
SOCORRO        FAIR      58  35  42 NW9       30.18S

$$
NMZ524>526-539-540-220300-
SOUTHCENTRAL MOUNTAINS

CITY           SKY/WX    TMP DP  RH WIND       PRES   REMARKS
RUIDOSO        FAIR      52  25  35 W5        30.29S

$$
NMZ527>531-220300-
NORTHEAST HIGHLANDS/NORTHEAST PLAINS

CITY           SKY/WX    TMP DP  RH WIND       PRES   REMARKS
LAS VEGAS      FAIR      47   3  16 W12       30.19S
RATON          FAIR      51  13  21 W12       30.13R
CLAYTON        FAIR      58  24  27 SW10      30.05R

$$
NMZ532>537-220300-
EASTCENTRAL PLAINS

CITY           SKY/WX    TMP DP  RH WIND       PRES   REMARKS
TUCUMCARI      FAIR      60  21  22 S7        30.01R
CANNON AFB     FAIR      60  27  28 W9        30.07R
CLOVIS AIRPORT FAIR      55  28  35 SE6       30.06S

$$
NMZ028-029-538-220300-
SOUTHEAST PLAINS

CITY           SKY/WX    TMP DP  RH WIND       PRES   REMARKS
ROSWELL        FAIR      69  24  18 NW8         N/A
ARTESIA        FAIR      68  34  28 SW14      30.07R
CARLSBAD       FAIR      70  32  24 W17       30.04S
HOBBS          FAIR      59  28  31 SW8       30.07S


$$




USA.gov is the U.S. government's official web portal to all federal, state and local government web resources and services.